CCA909 UUEE-ZSQD

Flight info

Callsign CCA909
Flight time N/A
Altitude 37000
Route OLMUN3E OLMUN T629 IPSIL T830 LAMGU N604 OGSIN P983 TINRI T448 RUBOR A300 ML A308 KD A575 NOSPI L158 SURUB R480 TR A308 GINOM/K0843S1130 Y684 UDA Y345 POLHO W33 UKDUM W201 HCH W651 NOKUD
Aircraft A343/H-SDE2E3FGHIJ4J5M1RWXY/LB1D1

Departure

Time N/A
Airport Sheremetyevo International Airport (UUEE)

Arrival

Time 2026-04-20 12:53
Airport Qingdao Jiaodong International Airport (ZSQD)
Time Latitude Longitude Altitude Speed Heading
2026-04-20 08:18 56.57954 72.62786 37020 ft 529 kts 77°
2026-04-20 08:18 56.58558 72.69380 37017 ft 529 kts 76°
2026-04-20 08:18 56.59953 72.82467 37020 ft 528 kts 74°
2026-04-20 08:19 56.61597 72.95419 37070 ft 526 kts 71°
2026-04-20 08:19 56.63464 73.08233 37080 ft 524 kts 69°
2026-04-20 08:20 56.65530 73.20921 37078 ft 523 kts 68°
2026-04-20 08:20 56.67791 73.33473 37076 ft 522 kts 65°
2026-04-20 08:21 56.69812 73.43787 37072 ft 521 kts 64°
2026-04-20 08:21 56.72849 73.58135 37146 ft 518 kts 62°
2026-04-20 08:22 56.75154 73.68189 37177 ft 516 kts 60°
2026-04-20 08:22 56.78092 73.80111 37148 ft 515 kts 58°
2026-04-20 08:23 56.81219 73.91854 37131 ft 514 kts 56°
2026-04-20 08:23 56.84547 74.03385 37164 ft 512 kts 54°
2026-04-20 08:24 56.88035 74.14692 37232 ft 509 kts 52°
2026-04-20 08:24 56.91678 74.25773 37229 ft 507 kts 51°
2026-04-20 08:25 56.95479 74.36625 37215 ft 506 kts 49°
2026-04-20 08:25 56.99438 74.47306 37128 ft 507 kts 47°
2026-04-20 08:26 57.03534 74.57803 37210 ft 504 kts 46°
2026-04-20 08:26 57.07729 74.68056 37266 ft 501 kts 44°
2026-04-20 08:27 57.12028 74.78116 37239 ft 500 kts 43°
2026-04-20 08:27 57.16433 74.87913 37165 ft 499 kts 41°
2026-04-20 08:28 57.20965 74.97571 37173 ft 497 kts 40°
2026-04-20 08:28 57.25590 75.07034 37277 ft 494 kts 39°
2026-04-20 08:29 57.30295 75.16263 37275 ft 492 kts 37°
2026-04-20 08:29 57.35128 75.25223 37242 ft 492 kts 36°
2026-04-20 08:30 57.40104 75.33952 37107 ft 493 kts 33°
2026-04-20 08:30 57.45227 75.42345 37167 ft 488 kts 31°
2026-04-20 08:31 57.50469 75.50245 37281 ft 483 kts 28°
2026-04-20 08:31 57.55839 75.57690 37205 ft 481 kts 26°
2026-04-20 08:32 57.61337 75.64774 37124 ft 480 kts 24°
2026-04-20 08:32 55.97354 37.38814 37143 ft 0 kts 345°
2026-04-20 08:42 56.96756 67.94369 35872 ft 531 kts 101°
2026-04-20 08:42 56.96311 67.98786 37039 ft 459 kts 101°
2026-04-20 08:42 56.95950 68.02600 36964 ft 456 kts 101°
2026-04-20 08:43 56.94740 68.15686 36962 ft 435 kts 101°
2026-04-20 08:43 56.93905 68.24600 36970 ft 422 kts 102°
2026-04-20 08:44 56.92891 68.35204 36978 ft 424 kts 102°
2026-04-20 08:44 56.91850 68.45914 36979 ft 430 kts 102°
2026-04-20 08:45 56.90787 68.56771 36980 ft 436 kts 102°
2026-04-20 08:45 56.89702 68.67765 36979 ft 441 kts 102°
2026-04-20 08:46 56.88596 68.78861 36975 ft 448 kts 102°
2026-04-20 08:46 56.87458 68.90178 36968 ft 455 kts 102°
2026-04-20 08:47 56.86293 69.01656 36974 ft 463 kts 102°
2026-04-20 08:47 56.85097 69.13315 36980 ft 471 kts 102°
2026-04-20 08:48 56.83870 69.25171 36978 ft 479 kts 102°
2026-04-20 08:48 56.82611 69.37209 36986 ft 487 kts 102°
2026-04-20 08:49 56.81318 69.49454 36984 ft 495 kts 102°
2026-04-20 08:49 56.79992 69.61894 36948 ft 503 kts 102°
2026-04-20 08:50 56.78633 69.74500 36996 ft 511 kts 102°
2026-04-20 08:50 56.77239 69.87303 36988 ft 519 kts 102°
2026-04-20 08:51 56.75810 70.00305 36980 ft 527 kts 102°
2026-04-20 08:51 56.74348 70.13475 36992 ft 535 kts 102°
2026-04-20 08:52 56.72913 70.26257 36980 ft 536 kts 102°
2026-04-20 08:52 56.71320 70.39500 36988 ft 534 kts 103°
2026-04-20 08:53 56.69678 70.52667 36983 ft 535 kts 103°
2026-04-20 08:53 56.68028 70.65885 36975 ft 535 kts 103°
2026-04-20 08:54 56.66389 70.78993 36979 ft 534 kts 103°
2026-04-20 08:54 56.64731 70.92161 36983 ft 534 kts 103°
2026-04-20 08:55 56.63066 71.05262 36999 ft 534 kts 103°
2026-04-20 08:55 56.61372 71.18463 37001 ft 535 kts 103°
2026-04-20 08:56 56.59669 71.31615 36993 ft 536 kts 103°
2026-04-20 08:56 56.57951 71.44767 37007 ft 536 kts 103°
2026-04-20 08:57 56.56216 71.57925 37002 ft 536 kts 104°
2026-04-20 08:57 56.54472 71.71041 37013 ft 535 kts 104°
2026-04-20 08:58 56.52718 71.84114 37012 ft 534 kts 104°
2026-04-20 08:58 56.50950 71.97170 37018 ft 534 kts 104°
2026-04-20 08:59 56.49167 72.10227 37017 ft 534 kts 104°
2026-04-20 08:59 56.46012 72.33061 37018 ft 534 kts 104°
2026-04-20 09:00 56.42355 72.59110 36970 ft 535 kts 104°
2026-04-20 09:00 56.38646 72.85100 37029 ft 534 kts 104°
2026-04-20 09:01 56.34913 73.10824 37031 ft 534 kts 105°
2026-04-20 09:01 56.31062 73.36935 37026 ft 535 kts 105°
2026-04-20 09:02 56.27183 73.62817 37039 ft 535 kts 105°
2026-04-20 09:02 56.23256 73.88621 37044 ft 535 kts 105°
2026-04-20 09:03 56.20954 74.14993 37053 ft 534 kts 95°
2026-04-20 09:03 56.19044 74.41270 37098 ft 534 kts 96°
2026-04-20 09:04 56.17025 74.67717 37057 ft 535 kts 96°
2026-04-20 09:04 56.14950 74.94066 37066 ft 533 kts 96°
2026-04-20 09:05 56.12816 75.20432 37073 ft 534 kts 96°
2026-04-20 09:05 56.09677 75.57975 37081 ft 534 kts 96°
2026-04-20 09:06 56.05093 76.10413 37060 ft 534 kts 96°
2026-04-20 09:06 56.00282 76.62786 37093 ft 533 kts 97°
2026-04-20 09:07 55.95262 77.14889 37095 ft 533 kts 97°
2026-04-20 09:07 55.90007 77.67012 37120 ft 533 kts 97°
2026-04-20 09:08 55.84388 78.18772 37130 ft 534 kts 99°
2026-04-20 09:08 55.78314 78.70429 37144 ft 533 kts 99°
2026-04-20 09:09 55.72078 79.21709 37117 ft 532 kts 99°
2026-04-20 09:09 55.65613 79.72941 37137 ft 532 kts 100°
2026-04-20 09:10 55.59004 80.23948 37143 ft 531 kts 100°
2026-04-20 09:10 55.52219 80.74732 37141 ft 532 kts 101°
2026-04-20 09:11 55.45253 81.25130 37150 ft 533 kts 102°
2026-04-20 09:11 55.37879 81.75630 37159 ft 533 kts 102°
2026-04-20 09:12 55.30316 82.26012 37196 ft 534 kts 102°
2026-04-20 09:12 55.24367 82.49683 37176 ft 535 kts 125°
2026-04-20 09:12 55.15580 82.70806 37158 ft 536 kts 127°
2026-04-20 09:13 55.00145 83.15152 37156 ft 535 kts 116°
2026-04-20 09:13 54.86449 83.61192 37153 ft 537 kts 117°
2026-04-20 09:14 54.72603 84.06710 37146 ft 533 kts 117°
2026-04-20 09:14 54.58594 84.51913 37141 ft 532 kts 118°
2026-04-20 09:15 54.44441 84.96698 37167 ft 533 kts 118°
2026-04-20 09:15 54.30125 85.41187 37156 ft 532 kts 118°
2026-04-20 09:16 54.15666 85.85301 37144 ft 532 kts 119°
2026-04-20 09:16 54.01041 86.29129 37143 ft 531 kts 119°
2026-04-20 09:17 53.86268 86.72618 37129 ft 532 kts 120°
2026-04-20 09:17 53.79639 86.94996 37130 ft 531 kts 108°
2026-04-20 09:17 53.75008 87.18309 37129 ft 531 kts 106°
2026-04-20 09:18 53.65496 87.65825 37122 ft 530 kts 107°
2026-04-20 09:18 53.55881 88.12450 37109 ft 530 kts 107°
2026-04-20 09:19 53.46049 88.59068 37093 ft 527 kts 108°
2026-04-20 09:19 53.36071 89.05237 37092 ft 528 kts 109°
2026-04-20 09:20 53.25690 89.51233 37075 ft 527 kts 109°
2026-04-20 09:20 53.19974 89.76226 37072 ft 524 kts 110°
2026-04-20 09:21 53.17412 89.87334 37070 ft 524 kts 110°
2026-04-20 09:21 53.14781 89.98678 37081 ft 524 kts 110°
2026-04-20 09:22 53.12143 90.09998 37069 ft 526 kts 110°
2026-04-20 09:22 53.09482 90.21350 37079 ft 526 kts 110°
2026-04-20 09:23 53.06812 90.32680 37079 ft 526 kts 110°
2026-04-20 09:23 53.04131 90.43999 37081 ft 526 kts 110°
2026-04-20 09:24 53.01435 90.55320 37083 ft 526 kts 111°
2026-04-20 09:24 52.98745 90.66561 37084 ft 523 kts 111°
2026-04-20 09:25 52.96053 90.77750 37090 ft 522 kts 111°
2026-04-20 09:25 52.93351 90.88924 37083 ft 522 kts 111°
2026-04-20 09:26 52.90638 91.00084 37087 ft 522 kts 111°
2026-04-20 09:26 52.88376 91.09350 37081 ft 523 kts 111°
2026-04-20 09:27 52.85174 91.22389 37071 ft 523 kts 112°
2026-04-20 09:27 52.82444 91.33454 37068 ft 523 kts 112°
2026-04-20 09:28 52.79687 91.44590 37072 ft 523 kts 112°
2026-04-20 09:28 52.76913 91.55705 37079 ft 523 kts 112°
2026-04-20 09:29 52.74593 91.64940 37043 ft 523 kts 112°
2026-04-20 09:29 52.71796 91.76033 37068 ft 524 kts 112°
2026-04-20 09:30 52.68990 91.87110 37071 ft 524 kts 112°
2026-04-20 09:30 52.66175 91.98172 37066 ft 524 kts 112°
2026-04-20 09:31 52.63344 92.09243 37068 ft 524 kts 113°
2026-04-20 09:31 52.60503 92.20297 37064 ft 524 kts 113°
2026-04-20 09:32 52.57652 92.31337 37063 ft 524 kts 113°
2026-04-20 09:32 52.54789 92.42360 37060 ft 524 kts 113°
2026-04-20 09:33 52.51921 92.53358 37065 ft 524 kts 113°
2026-04-20 09:33 52.49035 92.64375 37044 ft 526 kts 113°
2026-04-20 09:34 52.46136 92.75386 37061 ft 526 kts 113°
2026-04-20 09:34 52.41765 92.91891 37055 ft 526 kts 114°
2026-04-20 09:35 52.38836 93.02876 37061 ft 526 kts 114°
2026-04-20 09:35 52.35911 93.13800 37063 ft 528 kts 114°
2026-04-20 09:36 52.32952 93.24797 37055 ft 528 kts 114°
2026-04-20 09:36 52.29986 93.35764 37040 ft 528 kts 114°
2026-04-20 09:37 52.27005 93.46739 37036 ft 528 kts 114°
2026-04-20 09:37 52.24020 93.57672 37054 ft 526 kts 114°
2026-04-20 09:38 52.21032 93.68570 37037 ft 526 kts 114°
2026-04-20 09:38 52.18042 93.79423 37042 ft 525 kts 115°
2026-04-20 09:39 52.15040 93.90268 37043 ft 525 kts 115°
2026-04-20 09:39 52.12083 94.01135 37048 ft 526 kts 114°
2026-04-20 09:40 52.09177 94.12065 37037 ft 527 kts 114°
2026-04-20 09:40 52.06255 94.22980 37041 ft 527 kts 114°
2026-04-20 09:41 52.03307 94.33888 37191 ft 528 kts 114°
2026-04-20 09:41 52.01826 94.39339 37345 ft 528 kts 114°
2026-04-20 09:41 52.00359 94.44722 37522 ft 529 kts 114°
2026-04-20 09:42 51.98868 94.50178 37687 ft 529 kts 114°
2026-04-20 09:42 51.97375 94.55630 37854 ft 529 kts 114°
2026-04-20 09:42 51.95891 94.61037 38023 ft 530 kts 114°
2026-04-20 09:42 51.94376 94.66550 38063 ft 532 kts 114°
2026-04-20 09:43 51.92866 94.72033 38196 ft 533 kts 114°
2026-04-20 09:43 51.91335 94.77571 38399 ft 532 kts 114°
2026-04-20 09:43 51.89841 94.82965 38583 ft 532 kts 114°
2026-04-20 09:43 51.88323 94.88429 38752 ft 532 kts 114°
2026-04-20 09:44 51.85277 94.99361 38953 ft 534 kts 114°
2026-04-20 09:44 51.82210 95.10319 39034 ft 534 kts 114°
2026-04-20 09:45 51.79143 95.21225 39031 ft 531 kts 115°
2026-04-20 09:45 51.76080 95.32064 39031 ft 531 kts 115°
2026-04-20 09:46 51.73002 95.42908 39033 ft 532 kts 115°
2026-04-20 09:46 51.69915 95.53738 39029 ft 532 kts 115°
2026-04-20 09:47 51.66813 95.64578 38985 ft 532 kts 116°
2026-04-20 09:47 51.63718 95.75332 39030 ft 528 kts 116°
2026-04-20 09:48 51.60621 95.86041 39033 ft 527 kts 116°
2026-04-20 09:48 51.57512 95.96750 39032 ft 529 kts 116°
2026-04-20 09:49 51.54393 96.07439 39024 ft 528 kts 116°
2026-04-20 09:49 51.51266 96.18109 39024 ft 528 kts 116°
2026-04-20 09:50 51.48127 96.28772 39024 ft 528 kts 116°
2026-04-20 09:50 51.44993 96.39373 39028 ft 530 kts 116°
2026-04-20 09:51 51.41833 96.50019 39015 ft 529 kts 116°
2026-04-20 09:51 51.38658 96.60666 39021 ft 529 kts 116°
2026-04-20 09:52 51.35474 96.71295 39033 ft 530 kts 116°
2026-04-20 09:52 51.32277 96.81923 39010 ft 530 kts 116°
2026-04-20 09:53 51.29071 96.92532 39013 ft 530 kts 116°
2026-04-20 09:53 51.25851 97.03145 39014 ft 531 kts 116°
2026-04-20 09:54 51.22622 97.13734 39017 ft 530 kts 116°
2026-04-20 09:54 51.19387 97.24294 39022 ft 530 kts 116°
2026-04-20 09:55 51.16141 97.34851 39020 ft 531 kts 116°
2026-04-20 09:55 51.12882 97.45401 39020 ft 531 kts 117°
2026-04-20 09:56 51.09616 97.55931 38983 ft 530 kts 117°
2026-04-20 09:56 51.06347 97.66426 39024 ft 530 kts 117°
2026-04-20 09:57 51.03065 97.76918 39020 ft 530 kts 117°
2026-04-20 09:57 50.99777 97.87389 39021 ft 530 kts 117°
2026-04-20 09:58 50.96594 97.97929 39031 ft 530 kts 115°
2026-04-20 09:58 50.93506 98.08486 39028 ft 529 kts 115°
2026-04-20 09:59 50.90404 98.19008 39047 ft 526 kts 116°
2026-04-20 09:59 50.87277 98.29486 39050 ft 526 kts 116°
2026-04-20 10:00 50.84139 98.39930 39041 ft 526 kts 116°
2026-04-20 10:00 50.81008 98.50299 39038 ft 525 kts 116°
2026-04-20 10:01 50.77854 98.60731 39032 ft 520 kts 116°
2026-04-20 10:01 50.74722 98.71010 39020 ft 519 kts 116°
2026-04-20 10:02 50.71582 98.81268 39020 ft 519 kts 116°
2026-04-20 10:02 50.68441 98.91493 38995 ft 519 kts 116°
2026-04-20 10:03 50.65286 99.01730 38987 ft 519 kts 116°
2026-04-20 10:03 50.62121 99.11955 38986 ft 519 kts 116°
2026-04-20 10:04 50.58954 99.22147 38985 ft 519 kts 117°
2026-04-20 10:04 50.55774 99.32332 39033 ft 519 kts 117°
2026-04-20 10:05 50.52560 99.42586 38989 ft 526 kts 117°
2026-04-20 10:05 50.49292 99.52968 38989 ft 533 kts 117°
2026-04-20 10:06 50.45994 99.63410 38984 ft 534 kts 117°
2026-04-20 10:06 50.42709 99.73763 38976 ft 533 kts 117°
2026-04-20 10:07 50.39407 99.84110 38958 ft 527 kts 117°
2026-04-20 10:07 50.36130 99.94353 38959 ft 524 kts 117°
2026-04-20 10:08 50.32858 100.04538 38937 ft 524 kts 117°
2026-04-20 10:08 50.29575 100.14711 38938 ft 524 kts 117°
2026-04-20 10:09 50.26270 100.24908 38930 ft 528 kts 118°
2026-04-20 10:09 50.22921 100.35201 38921 ft 534 kts 118°
2026-04-20 10:10 50.19556 100.45523 38921 ft 534 kts 118°
2026-04-20 10:10 50.16166 100.55849 38885 ft 534 kts 118°
2026-04-20 10:11 50.12773 100.66139 38914 ft 533 kts 118°
2026-04-20 10:11 50.09374 100.76410 38900 ft 533 kts 118°
2026-04-20 10:12 50.05970 100.86659 38898 ft 533 kts 118°
2026-04-20 10:12 50.02554 100.96902 38898 ft 533 kts 118°
2026-04-20 10:13 49.99136 101.07110 38894 ft 533 kts 118°
2026-04-20 10:13 49.95701 101.17328 38888 ft 532 kts 118°
2026-04-20 10:14 49.92279 101.27468 38889 ft 532 kts 118°
2026-04-20 10:14 49.89413 101.35924 38883 ft 532 kts 118°
2026-04-20 10:15 49.85378 101.47781 38882 ft 532 kts 118°
2026-04-20 10:15 49.81935 101.57858 38884 ft 532 kts 118°
2026-04-20 10:16 49.78471 101.67960 38874 ft 531 kts 118°
2026-04-20 10:16 49.74996 101.78054 38877 ft 531 kts 118°
2026-04-20 10:17 49.71509 101.88143 38870 ft 533 kts 118°
2026-04-20 10:17 49.68578 101.96589 38872 ft 534 kts 119°
2026-04-20 10:18 49.64493 102.08317 38870 ft 534 kts 119°
2026-04-20 10:18 49.61558 102.16703 38870 ft 534 kts 119°
2026-04-20 10:19 49.58034 102.26747 38866 ft 533 kts 119°
2026-04-20 10:19 49.54499 102.36782 38855 ft 533 kts 119°
2026-04-20 10:20 49.50955 102.46802 38857 ft 533 kts 119°
2026-04-20 10:20 49.47402 102.56806 38861 ft 533 kts 119°
2026-04-20 10:21 49.43839 102.66807 38858 ft 533 kts 119°
2026-04-20 10:21 49.40269 102.76780 38858 ft 533 kts 119°
2026-04-20 10:22 49.36694 102.86733 38859 ft 533 kts 119°
2026-04-20 10:22 49.33105 102.96683 38859 ft 533 kts 120°
2026-04-20 10:23 49.29508 103.06618 38860 ft 533 kts 120°
2026-04-20 10:23 49.25920 103.16491 38854 ft 533 kts 120°
2026-04-20 10:24 49.22307 103.26398 38854 ft 533 kts 120°
2026-04-20 10:24 49.18686 103.36290 38835 ft 533 kts 120°
2026-04-20 10:25 49.15064 103.46153 38858 ft 532 kts 120°
2026-04-20 10:25 49.11439 103.55982 38857 ft 531 kts 120°
2026-04-20 10:26 49.07803 103.65787 38855 ft 531 kts 120°
2026-04-20 10:26 49.04161 103.75577 38859 ft 530 kts 120°
2026-04-20 10:27 49.00512 103.85354 38862 ft 530 kts 120°
2026-04-20 10:27 48.96857 103.95110 38863 ft 530 kts 120°
2026-04-20 10:28 48.93194 104.04853 38862 ft 530 kts 120°
2026-04-20 10:28 48.89529 104.14566 38862 ft 530 kts 120°
2026-04-20 10:29 48.85849 104.24284 38832 ft 530 kts 120°
2026-04-20 10:29 48.82155 104.33996 38861 ft 531 kts 120°
2026-04-20 10:30 48.78454 104.43695 38862 ft 531 kts 121°
2026-04-20 10:30 48.74747 104.53376 38891 ft 531 kts 121°
2026-04-20 10:31 48.71026 104.63051 38867 ft 532 kts 121°
2026-04-20 10:31 48.67297 104.72717 38865 ft 532 kts 121°
2026-04-20 10:32 48.63560 104.82374 38867 ft 532 kts 121°
2026-04-20 10:32 48.59812 104.92022 38877 ft 532 kts 121°
2026-04-20 10:33 48.56060 105.01642 38873 ft 531 kts 121°
2026-04-20 10:33 48.52303 105.11240 38844 ft 531 kts 121°
2026-04-20 10:34 48.48537 105.20828 38877 ft 531 kts 121°
2026-04-20 10:35 48.42897 105.35119 38879 ft 530 kts 121°
2026-04-20 10:35 48.39101 105.44698 38883 ft 530 kts 121°
2026-04-20 10:36 48.35315 105.54215 38883 ft 530 kts 122°
2026-04-20 10:36 48.31522 105.63717 38900 ft 530 kts 122°
2026-04-20 10:37 48.27739 105.73160 38887 ft 530 kts 122°
2026-04-20 10:37 48.23906 105.82692 38889 ft 530 kts 122°
2026-04-20 10:38 48.20085 105.92164 38886 ft 530 kts 122°
2026-04-20 10:38 48.16286 106.01569 38905 ft 531 kts 122°
2026-04-20 10:39 48.12448 106.11008 38890 ft 531 kts 122°
2026-04-20 10:39 48.08595 106.20452 38892 ft 532 kts 122°
2026-04-20 10:40 48.04732 106.29895 38896 ft 532 kts 122°
2026-04-20 10:40 48.00864 106.39318 38902 ft 532 kts 122°
2026-04-20 10:41 47.96989 106.48725 38906 ft 533 kts 122°
2026-04-20 10:41 47.93100 106.58135 38907 ft 533 kts 122°
2026-04-20 10:42 47.89207 106.67521 38909 ft 533 kts 122°
2026-04-20 10:42 47.85315 106.76883 38898 ft 533 kts 123°
2026-04-20 10:43 47.81376 106.86249 38911 ft 532 kts 123°
2026-04-20 10:43 47.77426 106.95565 38901 ft 532 kts 123°
2026-04-20 10:44 47.73477 107.04867 38904 ft 532 kts 123°
2026-04-20 10:44 47.69525 107.14161 38899 ft 533 kts 123°
2026-04-20 10:45 47.65554 107.23474 38895 ft 535 kts 124°
2026-04-20 10:45 47.61548 107.32759 38894 ft 534 kts 124°
2026-04-20 10:46 47.57529 107.42019 38893 ft 534 kts 124°
2026-04-20 10:46 47.53506 107.51280 38891 ft 535 kts 124°
2026-04-20 10:47 47.49475 107.60537 38875 ft 535 kts 124°
2026-04-20 10:47 47.45440 107.69774 38888 ft 535 kts 124°
2026-04-20 10:48 47.41397 107.78997 38897 ft 536 kts 124°
2026-04-20 10:48 47.37335 107.88254 38887 ft 538 kts 124°
2026-04-20 10:49 47.33261 107.97510 38881 ft 538 kts 124°
2026-04-20 10:49 47.29178 108.06755 38880 ft 538 kts 124°
2026-04-20 10:50 47.25109 108.15937 38882 ft 539 kts 124°
2026-04-20 10:50 47.21002 108.25175 38881 ft 540 kts 124°
2026-04-20 10:51 47.16885 108.34406 38877 ft 541 kts 124°
2026-04-20 10:51 47.12741 108.43664 38878 ft 543 kts 124°
2026-04-20 10:52 47.08582 108.52927 38879 ft 543 kts 125°
2026-04-20 10:52 47.04420 108.62166 38872 ft 543 kts 125°
2026-04-20 10:53 47.00246 108.71406 38877 ft 543 kts 124°
2026-04-20 10:53 46.96085 108.80627 38879 ft 543 kts 124°
2026-04-20 10:54 46.91912 108.89839 38873 ft 543 kts 124°
2026-04-20 10:54 46.87732 108.99035 38873 ft 543 kts 125°
2026-04-20 10:55 46.83542 109.08225 38874 ft 543 kts 125°
2026-04-20 10:55 46.79340 109.17411 38866 ft 544 kts 125°
2026-04-20 10:56 46.75127 109.26589 38871 ft 545 kts 125°
2026-04-20 10:56 46.70959 109.35640 38873 ft 545 kts 125°
2026-04-20 10:57 46.66698 109.44863 38877 ft 545 kts 125°
2026-04-20 10:57 46.62461 109.54003 38873 ft 545 kts 126°
2026-04-20 10:58 46.58213 109.63136 38873 ft 545 kts 126°
2026-04-20 10:58 46.54684 109.70702 38873 ft 545 kts 126°
2026-04-20 10:59 46.49702 109.81347 38871 ft 545 kts 126°
2026-04-20 10:59 46.45436 109.90431 38858 ft 545 kts 126°
2026-04-20 11:00 46.41875 109.97990 38869 ft 547 kts 126°
2026-04-20 11:00 46.37576 110.07088 38869 ft 547 kts 126°
2026-04-20 11:01 46.33269 110.16175 38876 ft 547 kts 126°
2026-04-20 11:01 46.28959 110.25240 38871 ft 547 kts 126°
2026-04-20 11:02 46.24638 110.34295 38868 ft 547 kts 126°
2026-04-20 11:02 46.20317 110.43324 38866 ft 546 kts 126°
2026-04-20 11:03 46.15989 110.52337 38869 ft 546 kts 126°
2026-04-20 11:03 46.11660 110.61325 38848 ft 546 kts 126°
2026-04-20 11:04 46.07309 110.70328 38856 ft 547 kts 126°
2026-04-20 11:04 46.02958 110.79303 38862 ft 547 kts 126°
2026-04-20 11:05 45.98600 110.88263 38871 ft 547 kts 127°
2026-04-20 11:05 45.94235 110.97210 38856 ft 547 kts 127°
2026-04-20 11:06 45.89860 111.06148 38870 ft 546 kts 127°
2026-04-20 11:06 45.85516 111.14998 38867 ft 546 kts 127°
2026-04-20 11:07 45.81138 111.23886 38865 ft 546 kts 127°
2026-04-20 11:07 45.76752 111.32763 38872 ft 546 kts 127°
2026-04-20 11:08 45.72347 111.41648 38868 ft 548 kts 127°
2026-04-20 11:08 45.67923 111.50547 38871 ft 549 kts 127°
2026-04-20 11:09 45.63489 111.59438 38876 ft 548 kts 127°
2026-04-20 11:09 45.59055 111.68300 38873 ft 548 kts 127°
2026-04-20 11:10 45.54621 111.77135 38885 ft 548 kts 127°
2026-04-20 11:10 45.50169 111.85977 38876 ft 548 kts 127°
2026-04-20 11:11 45.45720 111.94788 38885 ft 547 kts 127°
2026-04-20 11:11 45.41271 112.03570 38877 ft 548 kts 127°
2026-04-20 11:12 45.36798 112.12371 38883 ft 549 kts 127°
2026-04-20 11:12 45.32317 112.21163 38896 ft 549 kts 128°
2026-04-20 11:13 45.27828 112.29942 38886 ft 549 kts 128°
2026-04-20 11:13 45.23338 112.38698 38890 ft 549 kts 128°
2026-04-20 11:14 45.18839 112.47443 38895 ft 549 kts 128°
2026-04-20 11:14 45.14331 112.56178 38900 ft 549 kts 128°
2026-04-20 11:15 45.09814 112.64903 38896 ft 549 kts 128°
2026-04-20 11:15 45.05295 112.73609 38900 ft 549 kts 128°
2026-04-20 11:16 45.00771 112.82295 38905 ft 548 kts 128°
2026-04-20 11:16 44.96274 112.90905 38905 ft 547 kts 128°
2026-04-20 11:17 44.91754 112.99533 38916 ft 547 kts 128°
2026-04-20 11:17 44.87229 113.08143 38911 ft 547 kts 129°
2026-04-20 11:18 44.82694 113.16747 38909 ft 547 kts 129°
2026-04-20 11:18 44.78371 113.25545 38913 ft 549 kts 118°
2026-04-20 11:19 44.75142 113.35288 38920 ft 549 kts 114°
2026-04-20 11:19 44.72141 113.45158 38914 ft 549 kts 113°
2026-04-20 11:20 44.69155 113.55045 38913 ft 549 kts 113°
2026-04-20 11:20 44.66137 113.64918 38913 ft 549 kts 113°
2026-04-20 11:21 44.63102 113.74761 38919 ft 549 kts 114°
2026-04-20 11:21 44.60057 113.84588 38918 ft 549 kts 114°
2026-04-20 11:22 44.57005 113.94400 38916 ft 549 kts 114°
2026-04-20 11:22 44.53942 114.04214 38927 ft 549 kts 114°
2026-04-20 11:23 44.50873 114.14012 38917 ft 550 kts 114°
2026-04-20 11:23 44.47805 114.23767 38920 ft 550 kts 114°
2026-04-20 11:24 44.44692 114.33629 38937 ft 550 kts 114°
2026-04-20 11:24 44.41610 114.43357 38927 ft 551 kts 114°
2026-04-20 11:25 44.38497 114.53144 38930 ft 551 kts 114°
2026-04-20 11:25 44.35375 114.62926 38917 ft 551 kts 114°
2026-04-20 11:26 44.32243 114.72699 38933 ft 552 kts 115°
2026-04-20 11:26 44.29096 114.82486 38922 ft 552 kts 115°
2026-04-20 11:27 44.25944 114.92250 38920 ft 552 kts 115°
2026-04-20 11:27 44.22782 115.02007 38924 ft 552 kts 115°
2026-04-20 11:28 44.19613 115.11753 38924 ft 552 kts 115°
2026-04-20 11:28 44.16433 115.21495 38929 ft 553 kts 115°
2026-04-20 11:29 44.13242 115.31236 38929 ft 552 kts 115°
2026-04-20 11:29 44.10136 115.40681 38924 ft 552 kts 115°
2026-04-20 11:30 44.06934 115.50387 38927 ft 552 kts 115°
2026-04-20 11:30 44.03721 115.60088 38944 ft 553 kts 116°
2026-04-20 11:31 44.00516 115.69730 38932 ft 554 kts 116°
2026-04-20 11:31 43.97250 115.79520 38911 ft 555 kts 116°
2026-04-20 11:32 43.93634 115.88931 38921 ft 551 kts 129°
2026-04-20 11:32 43.91121 115.92903 38924 ft 543 kts 142°
2026-04-20 11:32 43.88202 115.96019 38927 ft 533 kts 155°
2026-04-20 11:32 43.84922 115.98258 38928 ft 520 kts 168°
2026-04-20 11:33 43.81440 115.99647 38936 ft 512 kts 175°
2026-04-20 11:33 43.74541 116.01674 38940 ft 510 kts 178°
2026-04-20 11:34 43.67563 116.03539 38997 ft 510 kts 178°
2026-04-20 11:34 43.60598 116.05444 39041 ft 510 kts 177°
2026-04-20 11:35 43.53639 116.07394 39049 ft 510 kts 177°
2026-04-20 11:35 43.46685 116.09355 39041 ft 510 kts 177°
2026-04-20 11:36 43.39731 116.11311 39059 ft 510 kts 177°
2026-04-20 11:36 43.32768 116.13263 39059 ft 510 kts 177°
2026-04-20 11:37 43.25830 116.15203 39042 ft 509 kts 177°
2026-04-20 11:37 43.15411 116.18105 39066 ft 509 kts 177°
2026-04-20 11:38 43.08502 116.20034 39075 ft 510 kts 176°
2026-04-20 11:38 43.01567 116.22152 39081 ft 511 kts 175°
2026-04-20 11:39 42.94641 116.24337 39077 ft 511 kts 175°
2026-04-20 11:39 42.87676 116.26505 39077 ft 510 kts 176°
2026-04-20 11:40 42.80746 116.28635 39076 ft 510 kts 176°
2026-04-20 11:40 42.73863 116.30739 39085 ft 510 kts 176°
2026-04-20 11:41 42.66944 116.32849 39090 ft 509 kts 176°
2026-04-20 11:41 42.60030 116.34954 39085 ft 509 kts 176°
2026-04-20 11:42 42.53136 116.37049 39091 ft 508 kts 176°
2026-04-20 11:42 42.46234 116.39140 39090 ft 508 kts 176°
2026-04-20 11:43 42.39335 116.41227 39092 ft 508 kts 177°
2026-04-20 11:43 42.32454 116.43304 39096 ft 507 kts 177°
2026-04-20 11:44 42.25594 116.45647 39099 ft 517 kts 168°
2026-04-20 11:44 42.22284 116.47693 39096 ft 529 kts 157°
2026-04-20 11:44 42.19249 116.50587 39081 ft 541 kts 144°
2026-04-20 11:45 42.15222 116.57249 39098 ft 556 kts 121°
2026-04-20 11:45 42.11817 116.66648 39098 ft 560 kts 116°
2026-04-20 11:46 42.08665 116.76262 39097 ft 561 kts 116°
2026-04-20 11:46 42.05500 116.85807 39097 ft 561 kts 116°
2026-04-20 11:47 42.02238 116.95418 39096 ft 561 kts 117°
2026-04-20 11:47 41.98989 117.04877 39092 ft 561 kts 117°
2026-04-20 11:48 41.95710 117.14387 39100 ft 561 kts 117°
2026-04-20 11:48 41.92427 117.23878 39089 ft 560 kts 117°
2026-04-20 11:49 41.89137 117.33381 39088 ft 560 kts 117°
2026-04-20 11:49 41.85840 117.42861 39088 ft 561 kts 117°
2026-04-20 11:50 41.82518 117.52357 39086 ft 563 kts 117°
2026-04-20 11:50 41.79180 117.61864 39084 ft 564 kts 117°
2026-04-20 11:51 41.75837 117.71368 39088 ft 564 kts 117°
2026-04-20 11:51 41.72477 117.80889 39088 ft 566 kts 117°
2026-04-20 11:52 41.69104 117.90413 39092 ft 566 kts 117°
2026-04-20 11:52 41.65746 117.99860 39092 ft 566 kts 117°
2026-04-20 11:53 41.62363 118.09349 39091 ft 566 kts 117°
2026-04-20 11:53 41.58972 118.18831 39090 ft 566 kts 117°
2026-04-20 11:54 41.55571 118.28313 39092 ft 566 kts 117°
2026-04-20 11:54 41.52045 118.37676 39090 ft 563 kts 126°
2026-04-20 11:55 41.49728 118.41836 39093 ft 554 kts 138°
2026-04-20 11:55 41.46920 118.45279 39087 ft 542 kts 151°
2026-04-20 11:55 41.43750 118.47858 39084 ft 529 kts 162°
2026-04-20 11:55 41.40440 118.49968 39089 ft 526 kts 165°
2026-04-20 11:56 41.33728 118.53803 39088 ft 524 kts 167°
2026-04-20 11:56 41.27017 118.57527 39074 ft 524 kts 167°
2026-04-20 11:57 41.20289 118.61332 39082 ft 526 kts 166°
2026-04-20 11:57 41.13586 118.65248 39082 ft 527 kts 165°
2026-04-20 11:58 41.06893 118.69179 39084 ft 526 kts 165°
2026-04-20 11:58 41.00191 118.73092 39085 ft 527 kts 166°
2026-04-20 11:59 40.93473 118.76996 39082 ft 528 kts 166°
2026-04-20 11:59 40.86753 118.80892 39086 ft 527 kts 166°
2026-04-20 12:00 40.80028 118.84782 39084 ft 528 kts 166°
2026-04-20 12:00 40.73294 118.88666 39086 ft 529 kts 166°
2026-04-20 12:01 40.66554 118.92548 39090 ft 529 kts 166°
2026-04-20 12:01 40.59802 118.96429 39088 ft 529 kts 167°
2026-04-20 12:02 40.53052 119.00297 39096 ft 529 kts 167°
2026-04-20 12:02 40.46346 119.04132 39107 ft 529 kts 167°
2026-04-20 12:03 40.39594 119.07988 39107 ft 529 kts 167°
2026-04-20 12:03 40.32826 119.11843 39105 ft 531 kts 167°
2026-04-20 12:04 40.26130 119.16062 39118 ft 546 kts 156°
2026-04-20 12:04 40.23085 119.19136 39114 ft 561 kts 143°
2026-04-20 12:04 40.20510 119.23031 39115 ft 573 kts 128°
2026-04-20 12:05 40.16697 119.32247 39113 ft 579 kts 118°
2026-04-20 12:05 40.13276 119.41805 39112 ft 580 kts 117°
2026-04-20 12:06 40.09863 119.51355 39105 ft 580 kts 118°
2026-04-20 12:06 40.06382 119.60861 39109 ft 580 kts 118°
2026-04-20 12:07 40.02737 119.70212 39104 ft 575 kts 128°
2026-04-20 12:07 40.00313 119.74301 39062 ft 563 kts 141°
2026-04-20 12:07 39.97402 119.77614 39100 ft 548 kts 155°
2026-04-20 12:08 39.94156 119.80022 39105 ft 528 kts 168°
2026-04-20 12:08 39.90747 119.81577 39109 ft 515 kts 176°
2026-04-20 12:08 39.83839 119.83943 38962 ft 511 kts 179°
2026-04-20 12:09 39.80380 119.85018 38744 ft 511 kts 179°
2026-04-20 12:09 39.76924 119.86084 38424 ft 512 kts 180°
2026-04-20 12:09 39.73503 119.87154 38162 ft 513 kts 179°
2026-04-20 12:09 39.70035 119.88256 37888 ft 513 kts 179°
2026-04-20 12:10 39.66569 119.89371 37624 ft 514 kts 179°
2026-04-20 12:10 39.63092 119.90498 37357 ft 515 kts 179°
2026-04-20 12:10 39.59614 119.91628 37101 ft 515 kts 180°
2026-04-20 12:10 39.56137 119.92759 36798 ft 515 kts 180°
2026-04-20 12:11 39.52658 119.93890 36533 ft 516 kts 180°
2026-04-20 12:11 39.49170 119.95021 36296 ft 516 kts 180°
2026-04-20 12:11 39.45685 119.96150 36052 ft 517 kts 180°
2026-04-20 12:11 39.42192 119.97279 35812 ft 517 kts 181°
2026-04-20 12:12 39.38701 119.98407 35564 ft 518 kts 181°
2026-04-20 12:12 39.35205 119.99534 35323 ft 518 kts 181°
2026-04-20 12:12 39.31697 120.00667 35024 ft 520 kts 181°
2026-04-20 12:12 39.28181 120.01818 34788 ft 522 kts 181°
2026-04-20 12:13 39.24660 120.02981 34558 ft 523 kts 181°
2026-04-20 12:13 39.21134 120.04149 34328 ft 524 kts 181°
2026-04-20 12:13 39.17596 120.05321 34094 ft 525 kts 181°
2026-04-20 12:13 39.14053 120.06492 33837 ft 526 kts 181°
2026-04-20 12:14 39.10513 120.07658 33569 ft 526 kts 181°
2026-04-20 12:14 39.06964 120.08826 33311 ft 526 kts 181°
2026-04-20 12:14 39.03422 120.09990 33045 ft 526 kts 181°
2026-04-20 12:14 38.99872 120.11155 32791 ft 526 kts 181°
2026-04-20 12:15 38.96333 120.12314 32532 ft 526 kts 181°
2026-04-20 12:15 38.92791 120.13474 32272 ft 526 kts 181°
2026-04-20 12:15 38.89239 120.14635 31949 ft 525 kts 180°
2026-04-20 12:15 38.85704 120.15789 31700 ft 526 kts 180°
2026-04-20 12:16 38.82158 120.16946 31448 ft 526 kts 180°
2026-04-20 12:16 38.78604 120.18104 31200 ft 526 kts 180°
2026-04-20 12:16 38.75061 120.19257 30973 ft 526 kts 180°
2026-04-20 12:16 38.71514 120.20412 30734 ft 525 kts 180°
2026-04-20 12:17 38.67983 120.21555 30434 ft 522 kts 180°
2026-04-20 12:17 38.64503 120.22637 30209 ft 519 kts 181°
2026-04-20 12:17 38.60999 120.23700 29944 ft 517 kts 181°
2026-04-20 12:17 38.57512 120.24768 29664 ft 516 kts 180°
2026-04-20 12:18 38.54024 120.25878 29386 ft 515 kts 179°
2026-04-20 12:18 38.50553 120.27006 29114 ft 513 kts 179°
2026-04-20 12:18 38.47103 120.28138 28837 ft 511 kts 179°
2026-04-20 12:18 38.43670 120.29259 28508 ft 509 kts 179°
2026-04-20 12:19 38.40245 120.30371 28242 ft 507 kts 179°
2026-04-20 12:19 38.36836 120.31473 27977 ft 505 kts 179°
2026-04-20 12:19 38.33441 120.32568 27722 ft 502 kts 179°
2026-04-20 12:19 38.30059 120.33657 27460 ft 500 kts 179°
2026-04-20 12:20 38.26686 120.34742 27213 ft 498 kts 179°
2026-04-20 12:20 38.23335 120.35822 26906 ft 497 kts 179°
2026-04-20 12:20 38.20001 120.36907 26653 ft 495 kts 179°
2026-04-20 12:20 38.16660 120.37994 26415 ft 492 kts 179°
2026-04-20 12:21 38.13354 120.39067 26167 ft 490 kts 179°
2026-04-20 12:21 38.10050 120.40140 25910 ft 489 kts 179°
2026-04-20 12:21 38.06762 120.41208 25663 ft 486 kts 179°
2026-04-20 12:21 38.03503 120.42263 25445 ft 484 kts 179°
2026-04-20 12:22 38.00269 120.43310 25169 ft 482 kts 179°
2026-04-20 12:22 37.97008 120.44364 24931 ft 479 kts 179°
2026-04-20 12:22 37.93785 120.45405 24699 ft 477 kts 179°
2026-04-20 12:22 37.90573 120.46442 24470 ft 476 kts 179°
2026-04-20 12:23 37.87427 120.47456 24246 ft 474 kts 179°
2026-04-20 12:23 37.84182 120.48501 24014 ft 472 kts 179°
2026-04-20 12:23 37.81009 120.49523 23792 ft 470 kts 179°
2026-04-20 12:23 37.77851 120.50538 23477 ft 468 kts 178°
2026-04-20 12:24 37.74689 120.51553 23205 ft 467 kts 178°
2026-04-20 12:24 37.71545 120.52561 22938 ft 465 kts 178°
2026-04-20 12:24 37.68459 120.53515 22668 ft 459 kts 180°
2026-04-20 12:24 37.65325 120.53913 22142 ft 437 kts 194°
2026-04-20 12:25 37.62411 120.53357 21529 ft 414 kts 206°
2026-04-20 12:25 37.59668 120.52361 20919 ft 408 kts 208°
2026-04-20 12:25 37.56967 120.51307 20246 ft 407 kts 207°
2026-04-20 12:25 37.54244 120.50246 19572 ft 409 kts 206°
2026-04-20 12:26 37.51524 120.49200 18966 ft 409 kts 205°
2026-04-20 12:26 37.48809 120.48166 18430 ft 407 kts 204°
2026-04-20 12:26 37.46098 120.47135 17756 ft 406 kts 203°
2026-04-20 12:26 37.43413 120.46108 17194 ft 401 kts 204°
2026-04-20 12:27 37.40789 120.45112 16700 ft 397 kts 203°
2026-04-20 12:27 37.38152 120.44117 16169 ft 393 kts 203°
2026-04-20 12:27 37.35544 120.43133 15654 ft 390 kts 202°
2026-04-20 12:27 37.32954 120.42153 15128 ft 387 kts 202°
2026-04-20 12:28 37.30380 120.41181 14616 ft 385 kts 201°
2026-04-20 12:28 37.27826 120.40218 14125 ft 382 kts 201°
2026-04-20 12:28 37.25293 120.39262 13608 ft 379 kts 201°
2026-04-20 12:28 37.22780 120.38315 13085 ft 376 kts 200°
2026-04-20 12:29 37.20279 120.37375 12552 ft 373 kts 200°
2026-04-20 12:29 37.17801 120.36443 12091 ft 370 kts 200°
2026-04-20 12:29 37.15347 120.35521 11945 ft 370 kts 200°
2026-04-20 12:29 37.12871 120.34589 11857 ft 372 kts 200°
2026-04-20 12:30 37.10399 120.33660 11804 ft 370 kts 200°
2026-04-20 12:30 37.07927 120.32733 11800 ft 370 kts 200°
2026-04-20 12:30 37.05461 120.31808 11801 ft 370 kts 200°
2026-04-20 12:30 37.02989 120.30882 11802 ft 370 kts 200°
2026-04-20 12:31 37.00522 120.29958 11802 ft 370 kts 200°
2026-04-20 12:31 36.98090 120.28936 11797 ft 368 kts 207°
2026-04-20 12:31 36.95892 120.27368 11800 ft 361 kts 221°
2026-04-20 12:31 36.94126 120.25197 11734 ft 355 kts 236°
2026-04-20 12:32 36.93242 120.23509 11584 ft 349 kts 246°
2026-04-20 12:32 36.92086 120.19758 11260 ft 344 kts 256°
2026-04-20 12:32 36.91383 120.16903 11009 ft 343 kts 256°
2026-04-20 12:32 36.90682 120.14051 10758 ft 343 kts 256°
2026-04-20 12:33 36.90214 120.12172 10598 ft 342 kts 256°
2026-04-20 12:33 36.89497 120.09336 10350 ft 342 kts 255°
2026-04-20 12:33 36.88525 120.06611 10106 ft 346 kts 242°
2026-04-20 12:33 36.87019 120.04265 9879 ft 349 kts 227°
2026-04-20 12:34 36.85051 120.02538 9661 ft 344 kts 210°
2026-04-20 12:34 36.82816 120.01568 9438 ft 338 kts 194°
2026-04-20 12:34 36.80495 120.01382 9235 ft 332 kts 177°
2026-04-20 12:34 36.78267 120.01948 9042 ft 325 kts 161°
2026-04-20 12:35 36.76272 120.03179 8867 ft 316 kts 145°
2026-04-20 12:35 36.74619 120.04925 8634 ft 308 kts 132°
2026-04-20 12:35 36.73128 120.06805 8390 ft 304 kts 135°
2026-04-20 12:35 36.71449 120.08384 8141 ft 301 kts 149°
2026-04-20 12:36 36.69548 120.09443 7889 ft 299 kts 160°
2026-04-20 12:36 36.67571 120.10252 7671 ft 298 kts 162°
2026-04-20 12:36 36.65602 120.11021 7425 ft 297 kts 162°
2026-04-20 12:36 36.63630 120.11791 7194 ft 296 kts 161°
2026-04-20 12:37 36.61662 120.12561 6969 ft 297 kts 161°
2026-04-20 12:37 36.59706 120.13329 6722 ft 294 kts 161°
2026-04-20 12:37 36.57754 120.14096 6496 ft 293 kts 161°
2026-04-20 12:37 36.55814 120.14860 6247 ft 292 kts 161°
2026-04-20 12:38 36.53879 120.15621 6043 ft 289 kts 161°
2026-04-20 12:38 36.51977 120.16368 5942 ft 289 kts 161°
2026-04-20 12:38 36.50048 120.17127 5927 ft 291 kts 161°
2026-04-20 12:38 36.48116 120.17886 5924 ft 291 kts 161°
2026-04-20 12:39 36.44259 120.19400 5928 ft 291 kts 161°
2026-04-20 12:39 36.42325 120.20158 5928 ft 291 kts 161°
2026-04-20 12:39 36.40403 120.20911 5922 ft 289 kts 161°
2026-04-20 12:40 36.38499 120.21657 5930 ft 291 kts 161°
2026-04-20 12:40 36.36567 120.22413 5928 ft 290 kts 161°
2026-04-20 12:40 36.34648 120.23164 5928 ft 290 kts 161°
2026-04-20 12:40 36.32725 120.23916 5929 ft 290 kts 161°
2026-04-20 12:41 36.30804 120.24667 5928 ft 290 kts 161°
2026-04-20 12:41 36.28884 120.25418 5928 ft 289 kts 161°
2026-04-20 12:41 36.26972 120.26173 5792 ft 287 kts 161°
2026-04-20 12:41 36.25065 120.26916 5543 ft 287 kts 161°
2026-04-20 12:42 36.23163 120.27654 5216 ft 286 kts 161°
2026-04-20 12:42 36.21262 120.28393 4871 ft 285 kts 161°
2026-04-20 12:42 36.19376 120.29127 4537 ft 283 kts 161°
2026-04-20 12:42 36.17514 120.29852 4320 ft 276 kts 161°
2026-04-20 12:43 36.15712 120.30552 4163 ft 267 kts 161°
2026-04-20 12:43 36.13970 120.31229 4031 ft 258 kts 161°
2026-04-20 12:43 36.12270 120.31766 4002 ft 246 kts 174°
2026-04-20 12:43 36.10647 120.31444 4010 ft 235 kts 208°
2026-04-20 12:44 36.09468 120.30137 4020 ft 227 kts 243°
2026-04-20 12:44 36.08864 120.28353 4022 ft 225 kts 256°
2026-04-20 12:44 36.08401 120.26500 4017 ft 226 kts 257°
2026-04-20 12:44 36.07951 120.24677 4008 ft 215 kts 256°
2026-04-20 12:45 36.07526 120.22995 3998 ft 197 kts 257°
2026-04-20 12:45 36.07153 120.21397 4041 ft 191 kts 263°
2026-04-20 12:45 36.07328 120.19849 4020 ft 182 kts 306°
2026-04-20 12:45 36.08234 120.18811 4020 ft 177 kts 330°
2026-04-20 12:46 36.09291 120.18152 4003 ft 160 kts 339°
2026-04-20 12:46 36.10292 120.17695 3997 ft 147 kts 343°
2026-04-20 12:46 36.11235 120.17316 4016 ft 139 kts 344°
2026-04-20 12:46 36.12150 120.16962 4018 ft 138 kts 344°
2026-04-20 12:47 36.13069 120.16603 4015 ft 139 kts 344°
2026-04-20 12:47 36.13992 120.16240 4014 ft 139 kts 344°
2026-04-20 12:47 36.14916 120.15875 3991 ft 140 kts 344°
2026-04-20 12:47 36.15839 120.15508 3842 ft 139 kts 343°
2026-04-20 12:48 36.16761 120.15147 3627 ft 139 kts 343°
2026-04-20 12:48 36.17677 120.14789 3442 ft 138 kts 343°
2026-04-20 12:48 36.18590 120.14432 3242 ft 137 kts 343°
2026-04-20 12:48 36.19494 120.14078 3053 ft 136 kts 342°
2026-04-20 12:49 36.20399 120.13724 2869 ft 136 kts 342°
2026-04-20 12:49 36.21300 120.13371 2695 ft 135 kts 341°
2026-04-20 12:49 36.22196 120.13021 2507 ft 135 kts 340°
2026-04-20 12:49 36.23079 120.12674 2332 ft 134 kts 340°
2026-04-20 12:50 36.23978 120.12322 2138 ft 134 kts 339°
2026-04-20 12:50 36.24852 120.11980 1961 ft 133 kts 339°
2026-04-20 12:50 36.25734 120.11634 1781 ft 133 kts 339°
2026-04-20 12:50 36.26614 120.11288 1599 ft 132 kts 339°
2026-04-20 12:51 36.27495 120.10942 1424 ft 133 kts 339°
2026-04-20 12:51 36.28373 120.10598 1239 ft 133 kts 339°
2026-04-20 12:51 36.29252 120.10253 1058 ft 132 kts 340°
2026-04-20 12:51 36.30130 120.09908 882 ft 132 kts 341°
2026-04-20 12:52 36.31009 120.09563 701 ft 133 kts 341°
2026-04-20 12:52 36.31889 120.09218 530 ft 132 kts 342°
2026-04-20 12:52 36.32761 120.08875 362 ft 132 kts 342°
2026-04-20 12:52 36.33635 120.08532 180 ft 131 kts 342°
2026-04-20 12:53 36.34500 120.08192 54 ft 126 kts 342°
2026-04-20 12:53 36.35197 120.07912 41 ft 69 kts 342°
2026-04-20 12:53 36.35419 120.07829 42 ft 19 kts 351°
2026-04-20 12:53 36.35579 120.07833 43 ft 27 kts 13°
2026-04-20 12:54 36.35699 120.07883 43 ft 15 kts 46°
2026-04-20 12:54 36.35809 120.07896 43 ft 21 kts 342°
2026-04-20 12:54 36.35928 120.07846 43 ft 8 kts 342°
2026-04-20 12:54 36.36017 120.07811 43 ft 19 kts 343°
2026-04-20 12:55 36.36161 120.07756 43 ft 26 kts 342°
2026-04-20 12:55 36.36234 120.07726 43 ft 2 kts 342°
2026-04-20 12:55 36.36252 120.07719 43 ft 4 kts 342°
2026-04-20 12:55 36.36285 120.07706 43 ft 6 kts 342°
2026-04-20 12:56 36.36326 120.07690 43 ft 8 kts 342°
2026-04-20 12:56 36.36373 120.07694 43 ft 7 kts 27°
2026-04-20 12:56 36.36399 120.07742 43 ft 7 kts 70°
2026-04-20 12:56 36.36418 120.07807 43 ft 9 kts 70°
2026-04-20 12:57 36.36439 120.07889 43 ft 11 kts 79°
2026-04-20 12:57 36.36407 120.07962 43 ft 10 kts 137°
2026-04-20 12:57 36.36353 120.08020 43 ft 8 kts 140°
2026-04-20 12:57 36.36340 120.08033 43 ft 0 kts 141°